User: anonymous   Login
Location: Trois-Rivi�res
(46.3500°N, 72.5500°W)
Time: 12:44:24
(UTC-04:00)
Language:

SJ-11-01 - Orbit

View from above orbital plane
View from above orbital plane
View from above satellite
View from above satellite

Ground track
Ground track

The orbit data is extracted from the following two-line orbital elements,

1 36088U 09061A   17206.22586750 +.00000055 +00000-0 +21153-4 0  9998
2 36088 098.1339 253.3074 0012123 142.2025 218.0028 14.59953795410192
Epoch (UTC): 25 July 2017 05:25:14
Eccentricity: 0.0012123
inclination: 98.1339°
perigee height: 685 km
apogee height: 702 km
right ascension of ascending node: 253.3074°
argument of perigee: 142.2025°
revolutions per day: 14.59953795
mean anomaly at epoch: 218.0028°
orbit number at epoch: 41019

The dashed part of the orbit path shows where the satellite is in the earth's shadow,  

DLR